Вернуться в каталог

STARLINK-3578

АктивенСвязьVLEO
NORAD 51868·PAYLOAD·🇺🇸 United States

Запущен Mar 3, 2022 с Cape Canaveral Space Force Station

Loading…

Ближайшие Пролёты (ближайшие 24 часа)

TLE

СвежийSource: CelesTrak SupGP

Эпоха: Sep 14, 2026, 22:00 UTC

1 51868C 22022S   26257.91715278  .00009856  00000+0  28190-3 0  2575
2 51868  53.1593 229.5202 0001369  91.8710 280.4409 15.35402196    17

Отслеживайте STARLINK-3578 в реальном времени с AllMySat

Download on the App Store